FW6583 Weather Reports


Display with metric or nautical units.
time (UTC)temp
F
wind
direction
speed
MPH
gust
MPH
rain 1hr
in
rain 24hr
in
rain mn
in
humidity
%
barometer
mb
20260503013523 41 0 0.0 1.0 0.00 0.00 0.00 73 1019.5
20260503013046 41 91 0.0 1.0 0.00 0.00 0.00 73 1019.3
20260503012524 41 53 0.0 2.0 0.00 0.00 0.00 74 1019.2
20260503012026 41 0 1.0 2.0 0.00 0.00 0.00 73 1019.2
20260503011537 41 0 0.0 1.0 0.00 0.00 0.00 74 1019.2
20260503011023 41 40 0.0 2.0 0.00 0.00 0.00 74 1019.3
20260503010523 42 0 0.0 2.0 0.00 0.00 0.00 75 1019.3
20260503010045 42 0 0.0 2.0 0.00 0.00 0.00 75 1019.1
20260503005523 42 0 0.0 2.0 0.00 0.00 0.00 75 1019.2
20260503005024 42 0 0.0 2.0 0.00 0.00 0.00 75 1019.1
20260503004541 42 272 0.0 2.0 0.00 0.00 0.00 74 1019.0
20260503004026 42 0 0.0 1.0 0.00 0.00 0.00 75 1019.0
20260503003524 42 0 0.0 1.0 0.00 0.00 0.00 75 1018.9
20260503003042 42 0 0.0 1.0 0.00 0.00 0.00 74 1018.8
20260503002527 42 309 0.0 2.0 0.00 0.00 0.00 73 1018.8
20260503002024 42 266 0.0 4.0 0.00 0.00 0.00 74 1018.8
20260503001553 43 257 0.0 4.0 0.00 0.00 0.00 73 1018.6
20260503001025 43 289 1.0 4.0 0.00 0.00 0.00 72 1018.5
20260503000523 43 51 1.0 5.0 0.00 0.00 0.00 72 1018.7
20260503000046 43 0 0.0 5.0 0.00 0.00 0.00 72 1018.6
20260502235524 43 32 0.0 3.0 0.00 0.00 0.00 72 1018.5
20260502235023 44 334 1.0 3.0 0.00 0.00 0.00 71 1018.4
20260502234544 44 0 0.0 2.0 0.00 0.00 0.00 71 1018.4
20260502234025 44 85 0.0 2.0 0.00 0.00 0.00 70 1018.4
20260502233523 44 75 1.0 3.0 0.00 0.00 0.00 70 1018.3
20260502233045 44 274 1.0 8.0 0.00 0.00 0.00 70 1018.2
20260502232526 45 83 2.0 8.0 0.00 0.00 0.00 69 1018.2
20260502232023 45 300 0.0 4.0 0.00 0.00 0.00 69 1018.0
20260502231545 45 302 2.0 5.0 0.00 0.00 0.00 68 1018.0
20260502231023 45 293 1.0 5.0 0.00 0.00 0.00 68 1018.0
20260502230523 46 42 1.0 4.0 0.00 0.00 0.00 67 1017.9
20260502230040 46 347 0.0 4.0 0.00 0.00 0.00 67 1017.8
20260502225526 46 33 1.0 5.0 0.00 0.00 0.00 64 1017.7
20260502225027 46 49 1.0 5.0 0.00 0.00 0.00 63 1017.7
20260502224538 47 12 2.0 5.0 0.00 0.00 0.00 62 1017.7
20260502224023 47 318 2.0 5.0 0.00 0.00 0.00 60 1017.7
20260502223524 48 265 1.0 3.0 0.00 0.00 0.00 59 1017.5
20260502223044 48 276 1.0 5.0 0.00 0.00 0.00 58 1017.6
20260502222524 48 13 1.0 5.0 0.00 0.00 0.00 58 1017.5
20260502222023 48 226 2.0 4.0 0.00 0.00 0.00 56 1017.4
20260502221544 48 312 1.0 4.0 0.00 0.00 0.00 54 1017.4
20260502221023 48 328 1.0 6.0 0.00 0.00 0.00 53 1017.4
20260502220523 48 326 2.0 6.0 0.00 0.00 0.00 54 1017.4
20260502220044 48 299 2.0 4.0 0.00 0.00 0.00 54 1017.3
20260502215527 48 328 1.0 3.0 0.00 0.00 0.00 53 1017.3
20260502215023 48 328 1.0 6.0 0.00 0.00 0.00 52 1017.2
20260502214542 48 288 2.0 6.0 0.00 0.00 0.00 53 1017.1
20260502214027 48 54 1.0 7.0 0.00 0.00 0.00 53 1017.0
20260502213523 48 301 2.0 7.0 0.00 0.00 0.00 52 1017.0
20260502213039 49 307 3.0 9.0 0.00 0.00 0.00 52 1017.1
20260502212527 49 274 2.0 9.0 0.00 0.00 0.00 52 1017.2
20260502212023 49 310 3.0 9.0 0.00 0.00 0.00 51 1016.9
20260502211540 49 319 1.0 5.0 0.00 0.00 0.00 51 1016.9
20260502211026 49 272 1.0 5.0 0.00 0.00 0.00 50 1016.8
20260502210522 49 51 2.0 5.0 0.00 0.00 0.00 52 1016.9
20260502210100 49 303 2.0 7.0 0.00 0.00 0.00 51 1016.9
20260502205527 49 2 2.0 7.0 0.00 0.00 0.00 52 1016.7
20260502205023 49 23 1.0 3.0 0.00 0.00 0.00 52 1016.8
20260502204547 49 0 1.0 4.0 0.00 0.00 0.00 52 1016.9
20260502204024 49 103 2.0 4.0 0.00 0.00 0.00 50 1016.7
20260502203528 49 313 2.0 5.0 0.00 0.00 0.00 50 1016.9
20260502203044 50 294 3.0 5.0 0.00 0.00 0.00 50 1017.0
20260502202527 50 351 1.0 4.0 0.00 0.00 0.00 51 1017.0
20260502202027 50 11 2.0 5.0 0.00 0.00 0.00 53 1017.0
20260502201548 49 12 1.0 5.0 0.00 0.00 0.00 50 1017.0
20260502201027 49 284 1.0 5.0 0.00 0.00 0.00 51 1017.0
20260502200528 49 303 2.0 8.0 0.00 0.00 0.00 49 1017.1
20260502200049 50 22 2.0 8.0 0.00 0.00 0.00 50 1017.1
20260502195524 49 330 2.0 7.0 0.00 0.00 0.00 50 1017.1
20260502195024 49 293 3.0 7.0 0.00 0.00 0.00 50 1017.1
20260502194539 49 24 2.0 8.0 0.00 0.00 0.00 51 1017.1
20260502194026 49 15 3.0 8.0 0.00 0.00 0.00 50 1017.2
20260502193527 49 276 1.0 6.0 0.00 0.00 0.00 50 1017.1
20260502193047 49 321 2.0 5.0 0.00 0.00 0.00 51 1017.2
20260502192523 50 304 2.0 5.0 0.00 0.00 0.00 50 1017.3
20260502192026 49 30 1.0 6.0 0.00 0.00 0.00 51 1017.4
20260502191555 49 359 2.0 6.0 0.00 0.00 0.00 50 1017.5
20260502191028 49 351 3.0 7.0 0.00 0.00 0.00 50 1017.5
20260502190524 49 283 1.0 7.0 0.00 0.00 0.00 52 1017.5
20260502190057 49 318 1.0 4.0 0.00 0.00 0.00 51 1017.5
20260502185526 49 328 1.0 5.0 0.00 0.00 0.00 50 1017.6
20260502185026 50 296 1.0 5.0 0.00 0.00 0.00 52 1017.6
20260502184548 50 30 1.0 3.0 0.00 0.00 0.00 49 1017.6
20260502184027 50 287 1.0 3.0 0.00 0.00 0.00 49 1017.6
20260502183523 49 312 1.0 6.0 0.00 0.00 0.00 53 1017.7
20260502183103 49 307 2.0 6.0 0.00 0.00 0.00 51 1017.7
20260502182527 49 302 2.0 6.0 0.00 0.00 0.00 51 1017.8
20260502182026 49 327 3.0 6.0 0.00 0.00 0.00 51 1017.7
20260502181547 50 69 2.0 5.0 0.00 0.00 0.00 52 1017.8
20260502181026 50 71 2.0 5.0 0.00 0.00 0.00 52 1017.7
20260502180528 49 281 0.0 4.0 0.00 0.00 0.00 51 1017.7
20260502164024 50 34 2.0 5.0 0.00 0.00 0.00 48 1018.0
20260502163523 50 354 2.0 5.0 0.00 0.00 0.00 49 1018.1
20260502163048 49 299 1.0 5.0 0.00 0.00 0.00 51 1018.0
20260502162523 49 310 2.0 5.0 0.00 0.00 0.00 51 1018.2
20260502162025 49 251 2.0 4.0 0.00 0.00 0.00 53 1018.2
20260502161539 48 339 1.0 3.0 0.00 0.00 0.00 52 1018.2
20260502161022 48 265 2.0 3.0 0.00 0.00 0.00 54 1018.4
20260502160524 48 304 1.0 3.0 0.00 0.00 0.00 54 1018.3
20260502152023 46 278 3.0 7.0 0.00 0.00 0.00 61 1018.4
20260502151544 46 344 0.0 4.0 0.00 0.00 0.00 63 1018.3
20260502151022 46 5 2.0 4.0 0.00 0.00 0.00 60 1018.4
20260502150523 46 267 1.0 5.0 0.00 0.00 0.00 65 1018.4
20260502130527 38 319 0.0 2.0 0.00 0.00 0.00 97 1018.7
20260502123526 37 0 0.0 1.0 0.00 0.00 0.00 97 1019.1
20260502123040 36 342 0.0 1.0 0.00 0.00 0.00 97 1019.1
20260502122526 36 0 0.0 0.0 0.00 0.00 0.00 96 1019.2
20260502122024 36 0 0.0 1.0 0.00 0.00 0.00 96 1019.1
20260502121550 36 0 0.0 1.0 0.00 0.00 0.00 96 1019.0
20260502121026 35 0 0.0 0.0 0.00 0.00 0.00 96 1019.1
20260502120526 35 0 0.0 1.0 0.00 0.00 0.00 96 1019.1
20260502115526 35 0 0.0 1.0 0.00 0.00 0.00 96 1019.1
20260502115026 34 0 0.0 1.0 0.00 0.00 0.00 96 1018.9
20260502114545 34 0 0.0 1.0 0.00 0.00 0.00 96 1019.0
20260502114026 34 0 0.0 0.0 0.00 0.00 0.00 96 1019.1
20260502113526 34 0 0.0 0.0 0.00 0.00 0.00 96 1019.0
20260502113046 33 0 0.0 0.0 0.00 0.00 0.00 96 1019.0
20260502112523 33 0 0.0 0.0 0.00 0.00 0.00 96 1019.2
20260502112024 33 0 0.0 0.0 0.00 0.00 0.00 96 1019.1
20260502111539 33 0 0.0 1.0 0.00 0.00 0.00 96 1019.3
20260502111022 33 0 0.0 1.0 0.00 0.00 0.00 96 1019.4
20260502110523 33 80 0.0 1.0 0.00 0.00 0.00 96 1019.3
20260502110048 33 0 0.0 0.0 0.00 0.00 0.00 95 1019.3
20260502105523 33 0 0.0 0.0 0.00 0.01 0.00 95 1019.3
20260502105023 33 0 0.0 0.0 0.00 0.01 0.00 95 1019.3
20260502104547 33 0 0.0 0.0 0.00 0.01 0.00 95 1019.1
20260502104022 33 0 0.0 0.0 0.00 0.01 0.00 95 1019.1
20260502103522 33 0 0.0 0.0 0.00 0.01 0.00 95 1019.2
20260502103045 33 0 0.0 0.0 0.00 0.01 0.00 95 1019.2
20260502102524 33 0 0.0 0.0 0.00 0.01 0.00 95 1019.0
20260502102023 33 0 0.0 0.0 0.00 0.01 0.00 95 1019.2
20260502101552 33 0 0.0 0.0 0.00 0.01 0.00 95 1019.0
20260502101023 33 0 0.0 0.0 0.00 0.01 0.00 95 1019.1
20260502100525 33 0 0.0 0.0 0.00 0.01 0.00 95 1019.2
20260502091023 34 0 0.0 0.0 0.00 0.01 0.00 94 1019.2
20260502090522 34 0 0.0 0.0 0.00 0.01 0.00 94 1019.1
20260502071026 36 0 0.0 0.0 0.00 0.01 0.00 91 1018.7
20260502070527 37 0 0.0 0.0 0.00 0.01 0.00 91 1018.7
20260502070052 37 0 0.0 1.0 0.00 0.01 0.00 90 1018.8
20260502065528 38 0 0.0 1.0 0.00 0.01 0.00 91 1018.7
20260502065029 38 89 0.0 1.0 0.00 0.01 0.00 91 1018.8
20260502064542 38 0 0.0 1.0 0.00 0.01 0.00 90 1018.9
20260502064024 38 0 0.0 1.0 0.00 0.01 0.00 90 1018.9
20260502063524 38 0 0.0 0.0 0.00 0.01 0.00 89 1018.9
20260502063043 38 0 0.0 1.0 0.00 0.01 0.00 89 1019.0
20260502062524 38 0 0.0 1.0 0.00 0.01 0.00 89 1019.1
20260502062024 38 0 0.0 1.0 0.00 0.01 0.00 89 1019.1
20260502061542 38 0 0.0 0.0 0.00 0.01 0.00 89 1019.2
20260502061024 38 0 0.0 0.0 0.00 0.01 0.00 89 1019.1
20260502060523 38 0 0.0 1.0 0.00 0.01 0.00 88 1019.2
20260502060045 38 0 0.0 1.0 0.00 0.01 0.00 88 1019.2
20260502055528 38 47 0.0 1.0 0.00 0.01 0.00 87 1019.2
20260502055031 38 0 0.0 0.0 0.00 0.01 0.00 87 1019.1
20260502054547 39 0 0.0 0.0 0.00 0.01 0.00 87 1019.2
20260502054023 39 0 0.0 0.0 0.00 0.01 0.00 87 1019.4
20260502053524 39 0 0.0 1.0 0.00 0.01 0.00 86 1019.5
20260502053054 39 0 0.0 1.0 0.00 0.01 0.00 86 1019.6
20260502052524 39 0 0.0 1.0 0.00 0.01 0.00 86 1019.6
20260502052025 39 0 0.0 0.0 0.00 0.01 0.00 86 1019.6
20260502051557 39 0 0.0 0.0 0.00 0.01 0.00 86 1019.6
20260502051024 40 0 0.0 1.0 0.00 0.01 0.00 86 1019.6
20260502050528 40 0 0.0 1.0 0.00 0.01 0.00 87 1019.5
20260502050040 40 45 0.0 1.0 0.00 0.01 0.00 87 1019.5
20260502045525 40 0 0.0 1.0 0.00 0.01 0.00 87 1019.5
20260502045027 40 0 0.0 0.0 0.00 0.01 0.00 87 1019.4
20260502044547 40 0 0.0 0.0 0.00 0.01 0.00 87 1019.3
20260502044031 41 0 0.0 1.0 0.00 0.01 0.00 87 1019.2
20260502043524 41 0 0.0 2.0 0.00 0.01 0.00 87 1019.2
20260502043043 41 0 0.0 2.0 0.00 0.01 0.00 86 1019.1
20260502042525 41 284 0.0 1.0 0.00 0.01 0.00 87 1019.2
20260502042024 41 0 0.0 1.0 0.00 0.01 0.00 86 1019.0
20260502041603 42 0 0.0 1.0 0.00 0.01 0.00 86 1019.2
20260502041024 42 0 0.0 0.0 0.00 0.01 0.00 85 1019.2
20260502040524 42 0 0.0 1.0 0.00 0.01 0.00 85 1019.1
20260502040047 43 0 0.0 1.0 0.00 0.01 0.00 84 1019.2
20260502035524 43 349 0.0 2.0 0.00 0.01 0.01 84 1019.3
20260502035027 43 0 0.0 2.0 0.00 0.01 0.01 83 1019.2
20260502034543 43 331 0.0 2.0 0.00 0.01 0.01 82 1019.3
20260502034025 43 306 0.0 2.0 0.00 0.01 0.01 82 1019.4
20260502033526 44 278 0.0 2.0 0.00 0.01 0.01 82 1019.3
20260502033050 44 0 0.0 2.0 0.00 0.01 0.01 81 1019.2
20260502032525 44 288 1.0 2.0 0.00 0.01 0.01 81 1019.2
20260502032026 44 347 0.0 3.0 0.00 0.01 0.01 80 1019.1
20260502031543 44 285 1.0 6.0 0.00 0.01 0.01 80 1019.1
20260502031023 44 303 1.0 6.0 0.00 0.01 0.01 79 1018.9
20260502030526 44 259 0.0 4.0 0.00 0.01 0.01 79 1018.8
20260502030045 44 286 0.0 2.0 0.00 0.01 0.01 79 1018.8
20260502025528 44 0 0.0 3.0 0.00 0.01 0.01 79 1018.6
20260502025025 45 0 0.0 3.0 0.00 0.01 0.01 79 1018.5
20260502024541 45 312 0.0 3.0 0.00 0.01 0.01 79 1018.6
20260502024023 45 0 0.0 2.0 0.00 0.01 0.01 79 1018.6
20260502023523 45 350 0.0 2.0 0.00 0.01 0.01 79 1018.6
20260502023039 45 0 0.0 1.0 0.00 0.01 0.01 80 1018.6
20260502022523 45 0 0.0 2.0 0.00 0.01 0.01 79 1018.7
20260502022027 46 39 0.0 2.0 0.00 0.01 0.01 79 1018.7
20260502021539 46 304 1.0 2.0 0.00 0.01 0.01 80 1018.8
20260502021026 46 297 0.0 2.0 0.00 0.01 0.01 80 1018.5
20260502020524 46 313 1.0 2.0 0.00 0.01 0.01 79 1018.6
20260502020037 46 311 0.0 4.0 0.00 0.01 0.01 79 1018.5
20260502015526 46 319 0.0 4.0 0.00 0.01 0.01 79 1018.3
20260502015028 46 277 1.0 2.0 0.00 0.01 0.01 79 1018.3
20260502014545 46 0 0.0 5.0 0.00 0.01 0.01 80 1018.1
20260502014024 47 303 1.0 9.0 0.00 0.01 0.01 78 1017.9